This is the latest recevied weather packets stored in our database for station/object K1RTA-1. If no packets are shown the sender has not sent any weather packets the latest 10 day(s).
| Time | Temp. | Humidity | Pressure | Rain* | Wind** | Luminosity | Snow |
|---|---|---|---|---|---|---|---|
| 1778035883 | 15.56° C | 81% | 1014 hPa | 0 mm | - | - | - |
| 1778034983 | 15.56° C | 81% | 1014 hPa | 0 mm | - | - | - |
| 1778034083 | 15.56° C | 80% | 1014.2 hPa | 0 mm | - | - | - |
| 1778033182 | 15.56° C | 80% | 1014.2 hPa | 0 mm | - | - | - |
| 1778032284 | 15° C | 79% | 1014.5 hPa | 0 mm | - | - | - |
| 1778031382 | 15° C | 80% | 1014.7 hPa | 0 mm | - | - | - |
| 1778030484 | 15° C | 79% | 1014.4 hPa | 0 mm | - | - | - |
| 1778029583 | 15° C | 78% | 1014.2 hPa | 0 mm | - | - | - |
| 1778028684 | 15° C | 76% | 1013.9 hPa | 0 mm | - | - | - |
| 1778027783 | 15° C | 75% | 1013.6 hPa | 0 mm | - | - | - |
| 1778026883 | 15° C | 74% | 1013.1 hPa | 0 mm | - | - | - |
| 1778025983 | 15° C | 73% | 1013 hPa | 0 mm | - | - | - |
| 1778025084 | 15.56° C | 73% | 1013 hPa | 0 mm | - | - | - |
| 1778024183 | 15.56° C | 73% | 1012.8 hPa | 0 mm | - | - | - |
| 1778023283 | 15.56° C | 75% | 1012.7 hPa | 0 mm | - | - | - |
| 1778022383 | 15.56° C | 77% | 1012.7 hPa | 0 mm | - | - | - |
| 1778021484 | 15.56° C | 76% | 1012.5 hPa | 0 mm | - | - | - |
| 1778020583 | 15.56° C | 76% | 1012.3 hPa | 0 mm | - | - | - |
| 1778019684 | 16.11° C | 75% | 1012.2 hPa | 0 mm | - | - | - |
| 1778018784 | 16.11° C | 75% | 1012.3 hPa | 0 mm | - | - | - |
| 1778017884 | 16.11° C | 75% | 1012 hPa | 0 mm | - | - | - |
| 1778016983 | 16.11° C | 75% | 1012.3 hPa | 0 mm | - | - | - |
| 1778016083 | 16.11° C | 75% | 1012 hPa | 0 mm | - | - | - |
| 1778015184 | 16.67° C | 73% | 1012.1 hPa | 0 mm | - | - | - |
| 1778014283 | 17.22° C | 72% | 1011.7 hPa | 0 mm | - | - | - |
* Rain latest hour (hover to see other rain measurements)
** Current wind speed in m/s (hover to see current wind gust speed)